ボアッティーニ彗星

C/2010 J1 ( Boattini )

English version
Home page
Updated on October 3, 2010

---------------------------------------------------------------------

・ プロフィール

発見日 2010年5月6日
発見光度 15.8等
発見者 A. Boattini (Catalina Sky Survey)

・ 写真集

・ 軌道要素

Epoch 2010 Feb. 13.0 TT = JDT 2455240.5
T 2010 Feb. 4.81810 TT                                  MPC
q   1.6956406            (2000.0)            P               Q
z  +0.0272064      Peri.  333.10727     +0.07170146     -0.72053364
 +/-0.0000046      Node   254.81327     -0.73714381     -0.50410086
e   0.9538676      Incl.  134.38458     -0.67192105     +0.47614450

・ 星図

・ 光度変化

        m1 = 9.5 + 5 logΔ + 20.0 log r

---------------------------------------------------------------------

軌道要素はM.P.E.C. 2010-N56に掲載されたものです。
星図はステラナビゲータ Ver.8 (アストロアーツ) で作成したものです。
光度グラフはComet for Windowsで作成したものです。

---------------------------------------------------------------------

Copyright(C) Seiichi Yoshida (comet@aerith.net). All rights reserved.